Weather History for Hanford, WA

Change the Weather History Date:

Tuesday, February 12, 2013

  Actual Average Record
Temperature  
Mean Temperature 38 °F -  
Max Temperature 53 °F 44 °F 63 °F (2011)
Min Temperature 24 °F 28 °F 21 °F (2002)
Degree Days  
Heating Degree Days 26    
Moisture  
Dew Point 31 °F    
Average Humidity 77    
Maximum Humidity 98    
Minimum Humidity 47    
Precipitation  
Precipitation 0.00 in - - ()
Sea Level Pressure  
Sea Level Pressure 30.29 in    
Wind  
Wind Speed 4 mph (North)    
Max Wind Speed 16 mph    
Max Gust Speed 24 mph    
Visibility 15 miles    
Events      
Averages and records for this station are not official NWS values.
T = Trace of Precipitation, MM = Missing Value Source: NWS Daily Summary

Daily Weather History Graph

Daily Weather History Graph

Search for Another Location

Airport:

Trip Planner

Search our weather history database for the weather conditions in past years. The results will help you decide how hot, cold, wet, or windy it might be!

Date:

Astronomy

Feb. 12, 2013 Rise Set
Actual Time 7:06 AM PST 5:19 PM PST
Civil Twilight 6:34 AM PST 5:50 PM PST
Nautical Twilight 5:59 AM PST 6:26 PM PST
Astronomical Twilight 5:24 AM PST 7:01 PM PST
Moon 7:53 AM PST (2/12) 8:40 PM PST (2/12)
Length of Visible Light 11h 16m
Length of Day
10h 13m
Waxing Crescent, 8% of the Moon is Illuminated
Feb 12
Waxing Crescent
Feb 17
First Quarter
Feb 25
Full
Mar 4
Last Quarter
Mar 11
New

Hourly Weather History & Observations

Time (PST) Temp. Windchill Dew Point Humidity Pressure Visibility Wind Dir Wind Speed Gust Speed Precip Events Conditions
12:50 AM 25.0 °F - 24.1 °F 96% 30.28 in 15.0 mi NE 2.3 mph - N/A   Partly Cloudy
1:50 AM 24.3 °F 19.9 °F 23.7 °F 98% 30.29 in 15.0 mi NNE 3.5 mph - N/A   Partly Cloudy
2:50 AM 26.4 °F - 25.9 °F 98% 30.29 in 15.0 mi SE 2.3 mph - N/A   Mostly Cloudy
3:50 AM 29.1 °F - 28.2 °F 96% 30.27 in 15.0 mi Calm Calm - N/A   Mostly Cloudy
4:50 AM 28.2 °F 24.4 °F 27.7 °F 98% 30.28 in 15.0 mi NNE 3.5 mph - N/A   Mostly Cloudy
5:50 AM 29.7 °F 24.7 °F 28.6 °F 96% 30.29 in 15.0 mi NNW 4.6 mph - N/A   Overcast
6:50 AM 31.1 °F - 29.7 °F 94% 30.30 in 15.0 mi NNW 2.3 mph - N/A   Overcast
7:50 AM 29.5 °F 25.9 °F 28.4 °F 96% 30.31 in 15.0 mi NW 3.5 mph - N/A   Overcast
8:50 AM 34.7 °F 30.6 °F 31.6 °F 89% 30.32 in 15.0 mi NE 4.6 mph - N/A   Overcast
9:50 AM 37.0 °F 34.5 °F 31.3 °F 80% 30.35 in 15.0 mi NNW 3.5 mph - N/A   Overcast
10:50 AM 43.7 °F 41.1 °F 33.4 °F 67% 30.35 in 15.0 mi South 4.6 mph - N/A   Overcast
11:50 AM 42.8 °F 39.3 °F 33.8 °F 70% 30.35 in 15.0 mi NNE 5.8 mph - N/A   Overcast
12:50 PM 46.6 °F - 34.3 °F 62% 30.35 in 15.0 mi NNE 4.6 mph - N/A   Mostly Cloudy
1:50 PM 49.6 °F - 33.4 °F 54% 30.34 in 15.0 mi South 4.6 mph - N/A   Mostly Cloudy
2:50 PM 53.1 °F - 33.1 °F 47% 30.32 in 15.0 mi SE 4.6 mph - N/A   Overcast
3:50 PM 51.1 °F - 33.4 °F 51% 30.27 in 15.0 mi ESE 8.1 mph - N/A   Overcast
4:50 PM 50.0 °F - 33.6 °F 53% 30.25 in 15.0 mi SSW 4.6 mph - N/A   Overcast
5:50 PM 42.1 °F 37.7 °F 33.4 °F 71% 30.25 in 15.0 mi NW 6.9 mph - N/A   Overcast
6:50 PM 42.1 °F 37.7 °F 33.6 °F 72% 30.25 in 15.0 mi NW 6.9 mph - N/A   Overcast
10:50 PM 45.7 °F 43.4 °F 33.4 °F 62% 30.21 in 15.0 mi WSW 4.6 mph - N/A   Mostly Cloudy
11:50 PM 49.3 °F - 36.0 °F 60% 30.19 in 15.0 mi SW 16.1 mph 24.2 mph N/A   Mostly Cloudy